Location: Recife
(8.0585°S, 34.8848°W)
Time: 11:49:28
(UTC-03:00)

Vanguard 2 - Pass Details

Date: 15 April 2026
Orbit: 554 x 2894 km, 32.9° (Epoch: 7 May)

Event Time Altitude Azimuth Distance (km) Brightness Sun altitude
Rises 21:16:09 0° 285° (WNW) 5,384 12.3 -59.5°
Reaches altitude 10° 21:19:24 10° 281° (W) 4,658 11.8 -60.3°
Enters shadow 21:26:23 36° 260° (W) 3,467 10.8 -62.0°
Maximum altitude 21:33:07 53° 207° (SSW) 3,158 - -63.7°
Drops below altitude 10° 21:50:18 10° 134° (SE) 5,671 - -67.9°
Sets 21:54:49 0° 129° (SE) 6,580 - -69.0°
